Flag for Argentina Weather past 2 weeks in Buenos Aires, Argentina

Now
50 °F

Clear.


Feels Like: 46 °F
Forecast: 42 / 50 °F
Wind: 10 mph from Southwest

Location: Buenos Aires Airport

Current Time: Jul 26, 2014 at 3:06:56 AM

Latest Report: Jul 26, 2014 at 2:00 AM


Visibility: 10 mi

Pressure: 30.12 "Hg

Humidity: 58%

Dew point: 36 °F

Location of Buenos AiresLocation

Historic Weather in Buenos Aires — Graph

°F

Buenos Aires temperature yesterday

Maximum temperature yesterday: 57 °F (at 2:00 PM)
Minimum temperature yesterday: 43 °F (at 8:00 AM)
Average temperature yesterday: 51 °F

Past Weeks' High & Low Weather Summary

 TemperatureHumidityPressure
High68 °F (Jul 19, 5:00 PM)100% (Jul 12, 7:00 PM)30.30 "Hg (Jul 12, 7:00 PM)
Low43 °F (Jul 24, 8:00 AM)24% (Jul 24, 5:00 PM)29.74 "Hg (Jul 22, 10:00 AM)
Average57 °F76%30.07 "Hg
* Reported Jul 11 2:00 AM — Jul 26 2:00 AM, Buenos Aires, Weather by CustomWeather, © 2014

Note: Actual official high and low records may vary slightly from our data, if they occured in-between our weather recording intervals... More about our weather records

Advertising

Buenos Aires weather history for previous 24 hours

 ConditionsComfort  
Time TempWeatherWind HumidityBarometerVisibility
2:00 AM
Jul 26
50 °FClear.10 mph58%30.12 "Hg10 mi
1:00 AM52 °FPassing clouds.13 mph54%30.12 "HgN/A
12:00 AM52 °FClear.14 mph50%30.09 "Hg10 mi
11:00 PM
Jul 25
52 °FClear.13 mph47%30.07 "Hg10 mi
10:00 PM52 °FClear.13 mph44%30.07 "Hg10 mi
9:00 PM52 °FClear.13 mph47%30.07 "Hg10 mi
8:00 PM52 °FClear.12 mph47%30.07 "Hg10 mi
7:00 PM54 °FPassing clouds.14 mph44%30.07 "HgN/A
6:00 PM52 °FClear.14 mph44%30.04 "Hg10 mi
5:00 PM55 °FSunny.14 mph31%30.04 "Hg10 mi
4:00 PM57 °FSunny.14 mph27%30.04 "Hg10 mi
3:00 PM57 °FSunny.13 mph29%30.07 "Hg10 mi
2:00 PM57 °FSunny.14 mph33%30.07 "Hg10 mi
1:00 PM55 °FSunny.16 mph38%30.09 "Hg10 mi
12:00 PM55 °FSunny.17 mph44%30.12 "Hg10 mi
11:00 AM52 °FSunny.14 mph58%30.12 "Hg10 mi
10:00 AM50 °FSunny.14 mph58%30.12 "Hg10 mi
9:00 AM46 °FSunny.8 mph57%30.12 "Hg10 mi
8:00 AM43 °FSunny.10 mph66%30.09 "Hg10 mi
7:00 AM45 °FSunny.10 mph57%30.09 "Hg10 mi
6:00 AM45 °FClear.9 mph57%30.09 "Hg10 mi
5:00 AM46 °FClear.12 mph53%30.09 "Hg10 mi
4:00 AM46 °FClear.9 mph57%30.12 "Hg10 mi
3:00 AM46 °FClear.9 mph57%30.15 "Hg10 mi
Weather by CustomWeather, © 2014

See weather overviewHow to use our weather pages